| time (UTC) | temp F | wind direction | speed MPH | gust MPH | rain 1hr in | rain 24hr in | rain mn in | humidity % | barometer mb |
| 20260506050105 | 64 | 273 | 0.0 | 3.0 | 0.00 | 0.28 | 0.22 | 52 | 1011.0 |
| 20260506044553 | 64 | 295 | 1.0 | 4.0 | 0.00 | 0.28 | 0.22 | 51 | 1010.8 |
| 20260506043051 | 64 | 272 | 2.0 | 8.0 | 0.00 | 0.28 | 0.22 | 50 | 1010.6 |
| 20260506041549 | 65 | 242 | 3.0 | 8.0 | 0.00 | 0.28 | 0.22 | 48 | 1010.3 |
| 20260506040049 | 65 | 263 | 3.0 | 8.0 | 0.00 | 0.28 | 0.22 | 44 | 1010.1 |
| 20260506034551 | 66 | 255 | 1.0 | 5.0 | 0.00 | 0.30 | 0.22 | 40 | 1009.9 |
| 20260506033048 | 66 | 266 | 1.0 | 6.0 | 0.00 | 0.30 | 0.22 | 38 | 1009.8 |
| 20260506031547 | 67 | 240 | 2.0 | 6.0 | 0.00 | 0.30 | 0.22 | 37 | 1009.6 |
| 20260506030047 | 67 | 268 | 1.0 | 10.0 | 0.00 | 0.30 | 0.22 | 36 | 1009.4 |
| 20260506024554 | 68 | 201 | 3.0 | 12.0 | 0.00 | 0.36 | 0.22 | 36 | 1009.2 |
| 20260506023045 | 68 | 259 | 3.0 | 10.0 | 0.00 | 0.36 | 0.22 | 37 | 1008.9 |
| 20260506021545 | 68 | 262 | 3.0 | 12.0 | 0.00 | 0.36 | 0.22 | 37 | 1008.6 |
| 20260506020055 | 70 | 278 | 4.0 | 11.0 | 0.00 | 0.36 | 0.22 | 35 | 1008.3 |
| 20260506014548 | 71 | 271 | 5.0 | 15.0 | 0.00 | 0.43 | 0.22 | 35 | 1008.2 |
| 20260506013143 | 72 | 274 | 6.0 | 18.0 | 0.00 | 0.43 | 0.22 | 33 | 1008.0 |
| 20260506011606 | 74 | 213 | 4.0 | 12.0 | 0.00 | 0.43 | 0.22 | 29 | 1007.8 |
| 20260506010043 | 74 | 330 | 8.0 | 14.0 | 0.00 | 0.43 | 0.22 | 29 | 1007.7 |
| 20260506004557 | 75 | 293 | 5.0 | 15.0 | 0.00 | 0.46 | 0.22 | 30 | 1007.5 |
| 20260506003040 | 75 | 264 | 7.0 | 14.0 | 0.00 | 0.46 | 0.22 | 29 | 1007.4 |
| 20260506001544 | 75 | 264 | 5.0 | 9.0 | 0.00 | 0.46 | 0.22 | 31 | 1007.3 |
| 20260506000108 | 75 | 259 | 5.0 | 16.0 | 0.00 | 0.46 | 0.22 | 30 | 1007.2 |
| 20260505234545 | 76 | 226 | 5.0 | 16.0 | 0.00 | 0.46 | 0.22 | 29 | 1007.0 |
| 20260505233036 | 76 | 248 | 6.0 | 14.0 | 0.00 | 0.46 | 0.22 | 28 | 1007.0 |
| 20260505231537 | 76 | 259 | 4.0 | 14.0 | 0.00 | 0.46 | 0.22 | 28 | 1007.0 |
| 20260505230051 | 77 | 237 | 8.0 | 16.0 | 0.00 | 0.46 | 0.22 | 28 | 1007.0 |
| 20260505224539 | 76 | 257 | 5.0 | 17.0 | 0.00 | 0.46 | 0.22 | 29 | 1007.0 |
| 20260505223032 | 76 | 270 | 8.0 | 16.0 | 0.00 | 0.46 | 0.22 | 28 | 1007.3 |
| 20260505221529 | 76 | 226 | 7.0 | 17.0 | 0.00 | 0.46 | 0.22 | 29 | 1007.2 |
| 20260505220026 | 76 | 225 | 7.0 | 18.0 | 0.00 | 0.46 | 0.22 | 31 | 1007.3 |
| 20260505214528 | 76 | 285 | 6.0 | 19.0 | 0.00 | 0.46 | 0.22 | 34 | 1007.5 |
| 20260505213025 | 76 | 231 | 10.0 | 23.0 | 0.00 | 0.46 | 0.22 | 33 | 1007.6 |
| 20260505211526 | 74 | 238 | 8.0 | 23.0 | 0.00 | 0.46 | 0.22 | 38 | 1007.7 |
| 20260505210018 | 74 | 290 | 9.0 | 17.0 | 0.00 | 0.46 | 0.22 | 37 | 1007.8 |
| 20260505204515 | 75 | 243 | 6.0 | 15.0 | 0.00 | 0.46 | 0.22 | 40 | 1007.9 |
| 20260505203014 | 74 | 338 | 6.0 | 17.0 | 0.00 | 0.46 | 0.22 | 40 | 1008.0 |
| 20260505201512 | 74 | 224 | 2.0 | 10.0 | 0.00 | 0.46 | 0.22 | 41 | 1008.1 |
| 20260505200011 | 74 | 281 | 2.0 | 8.0 | 0.00 | 0.46 | 0.22 | 49 | 1008.2 |
| 20260505194508 | 74 | 271 | 4.0 | 7.0 | 0.00 | 0.46 | 0.22 | 49 | 1008.4 |
| 20260505193009 | 73 | 11 | 4.0 | 8.0 | 0.00 | 0.46 | 0.22 | 50 | 1008.3 |
| 20260505191504 | 72 | 268 | 1.0 | 7.0 | 0.00 | 0.46 | 0.22 | 53 | 1008.6 |
| 20260505190005 | 71 | 288 | 3.0 | 8.0 | 0.00 | 0.46 | 0.22 | 54 | 1008.9 |
| 20260505184505 | 71 | 233 | 2.0 | 7.0 | 0.00 | 0.46 | 0.22 | 54 | 1009.2 |
| 20260505183100 | 70 | 314 | 1.0 | 6.0 | 0.00 | 0.46 | 0.22 | 58 | 1009.3 |
| 20260505181559 | 69 | 341 | 2.0 | 6.0 | 0.00 | 0.46 | 0.22 | 60 | 1009.4 |
| 20260505174556 | 69 | 226 | 0.0 | 6.0 | 0.00 | 0.46 | 0.22 | 60 | 1009.7 |
| 20260505173111 | 68 | 145 | 0.0 | 3.0 | 0.00 | 0.46 | 0.22 | 62 | 1009.7 |
| 20260505171603 | 65 | 319 | 0.0 | 3.0 | 0.00 | 0.46 | 0.22 | 68 | 1009.8 |
| 20260505170047 | 65 | 37 | 0.0 | 0.0 | 0.00 | 0.46 | 0.22 | 69 | 1009.6 |
| 20260505164545 | 64 | 333 | 0.0 | 1.0 | 0.00 | 0.46 | 0.22 | 71 | 1009.6 |
| 20260505163041 | 63 | 231 | 0.0 | 2.0 | 0.00 | 0.46 | 0.22 | 76 | 1009.7 |
| 20260505161539 | 63 | 231 | 0.0 | 3.0 | 0.00 | 0.46 | 0.22 | 76 | 1009.7 |
| 20260505153032 | 60 | 210 | 0.0 | 0.0 | 0.00 | 0.46 | 0.22 | 86 | 1009.4 |
| 20260505151527 | 60 | 148 | 0.0 | 2.0 | 0.00 | 0.46 | 0.22 | 89 | 1009.5 |
| 20260505124525 | 57 | 222 | 0.0 | 0.0 | 0.01 | 0.46 | 0.22 | 94 | 1008.4 |
| 20260505123017 | 57 | 222 | 0.0 | 0.0 | 0.01 | 0.46 | 0.22 | 94 | 1008.2 |
| 20260505121528 | 57 | 75 | 0.0 | 0.0 | 0.00 | 0.45 | 0.21 | 94 | 1008.1 |
| 20260505120015 | 57 | 75 | 0.0 | 0.0 | 0.02 | 0.45 | 0.21 | 93 | 1007.9 |
| 20260505114515 | 57 | 1 | 0.0 | 2.0 | 0.03 | 0.45 | 0.21 | 93 | 1007.8 |
| 20260505113013 | 57 | 336 | 0.0 | 0.0 | 0.03 | 0.45 | 0.21 | 93 | 1008.0 |
| 20260505111512 | 57 | 261 | 0.0 | 0.0 | 0.05 | 0.45 | 0.21 | 93 | 1008.1 |
| 20260505101505 | 57 | 146 | 0.0 | 0.0 | 0.02 | 0.40 | 0.16 | 92 | 1008.9 |
| 20260505100016 | 57 | 238 | 0.0 | 3.0 | 0.04 | 0.40 | 0.16 | 92 | 1009.1 |
| 20260505094507 | 57 | 129 | 2.0 | 5.0 | 0.05 | 0.40 | 0.16 | 92 | 1008.9 |
| 20260505093001 | 57 | 89 | 2.0 | 6.0 | 0.05 | 0.39 | 0.15 | 92 | 1009.4 |
| 20260505091618 | 57 | 131 | 2.0 | 6.0 | 0.05 | 0.38 | 0.14 | 92 | 1009.6 |
| 20260505084554 | 57 | 70 | 1.0 | 3.0 | 0.05 | 0.35 | 0.11 | 92 | 1010.5 |
| 20260505083053 | 57 | 70 | 1.0 | 4.0 | 0.07 | 0.34 | 0.10 | 92 | 1011.1 |
| 20260505081549 | 57 | 76 | 0.0 | 3.0 | 0.07 | 0.33 | 0.09 | 92 | 1011.2 |
| 20260505080051 | 57 | 75 | 0.0 | 0.0 | 0.07 | 0.31 | 0.07 | 92 | 1011.6 |
| 20260505074545 | 57 | 74 | 0.0 | 0.0 | 0.05 | 0.28 | 0.05 | 91 | 1011.7 |
| 20260505073055 | 58 | 76 | 0.0 | 0.0 | 0.05 | 0.27 | 0.03 | 91 | 1011.8 |
| 20260505071543 | 58 | 77 | 0.0 | 0.0 | 0.04 | 0.25 | 0.01 | 91 | 1011.5 |
| 20260505070037 | 58 | 72 | 0.0 | 2.0 | 0.04 | 0.24 | 0.00 | 91 | 1011.4 |
| 20260505064534 | 58 | 57 | 0.0 | 0.0 | 0.05 | 0.24 | 0.24 | 90 | 1011.3 |
| 20260505063044 | 58 | 70 | 0.0 | 2.0 | 0.04 | 0.22 | 0.22 | 89 | 1011.3 |
| 20260505061535 | 58 | 15 | 0.0 | 1.0 | 0.03 | 0.21 | 0.21 | 88 | 1011.4 |
| 20260505060032 | 58 | 46 | 0.0 | 2.0 | 0.02 | 0.20 | 0.20 | 88 | 1011.2 |
| 20260505054542 | 58 | 54 | 1.0 | 2.0 | 0.02 | 0.19 | 0.19 | 87 | 1010.8 |
| 20260505053029 | 58 | 67 | 0.0 | 2.0 | 0.01 | 0.18 | 0.18 | 86 | 1011.1 |
| 20260505051537 | 59 | 89 | 0.0 | 1.0 | 0.01 | 0.18 | 0.18 | 84 | 1011.3 |